This is the latest recevied weather packets stored in our database for station/object OK1FET-5. If no packets are shown the sender has not sent any weather packets the latest 10 day(s).
| Time | Temp. | Humidity | Pressure | Rain* | Wind** | Luminosity | Snow |
|---|---|---|---|---|---|---|---|
| 1777865608 | 12.78° C | 43% | 1014.1 hPa | - | - | - | - |
| 1777865314 | 12.22° C | 43% | 1014.1 hPa | - | - | - | - |
| 1777865019 | 12.22° C | 43% | 1014.2 hPa | - | - | - | - |
| 1777864725 | 12.78° C | 43% | 1014.2 hPa | - | - | - | - |
| 1777864431 | 12.78° C | 42% | 1014.1 hPa | - | - | - | - |
| 1777864137 | 12.78° C | 43% | 1014.1 hPa | - | - | - | - |
| 1777863843 | 12.78° C | 43% | 1014.1 hPa | - | - | - | - |
| 1777863548 | 12.78° C | 42% | 1014 hPa | - | - | - | - |
| 1777863254 | 12.78° C | 43% | 1014 hPa | - | - | - | - |
| 1777862960 | 12.22° C | 43% | 1014.2 hPa | - | - | - | - |
| 1777862665 | 12.22° C | 43% | 1014.2 hPa | - | - | - | - |
| 1777862371 | 12.22° C | 43% | 1014.3 hPa | - | - | - | - |
| 1777862076 | 12.22° C | 43% | 1014.2 hPa | - | - | - | - |
| 1777861782 | 12.78° C | 42% | 1014.2 hPa | - | - | - | - |
| 1777861488 | 12.78° C | 42% | 1014.2 hPa | - | - | - | - |
| 1777861193 | 13.33° C | 42% | 1014.1 hPa | - | - | - | - |
| 1777860899 | 13.33° C | 42% | 1014 hPa | - | - | - | - |
| 1777860605 | 13.89° C | 43% | 1014 hPa | - | - | - | - |
| 1777860310 | 13.89° C | 42% | 1014 hPa | - | - | - | - |
| 1777860016 | 13.89° C | 42% | 1014 hPa | - | - | - | - |
| 1777859721 | 13.89° C | 42% | 1013.8 hPa | - | - | - | - |
| 1777859427 | 14.44° C | 43% | 1013.8 hPa | - | - | - | - |
| 1777859132 | 14.44° C | 43% | 1013.7 hPa | - | - | - | - |
| 1777858838 | 14.44° C | 42% | 1013.7 hPa | - | - | - | - |
| 1777858544 | 14.44° C | 42% | 1013.7 hPa | - | - | - | - |
* Rain since midnight (hover to see other rain measurements)
** Current wind speed in m/s (hover to see current wind gust speed)